Weather History for LEJR - November, 2012

Change the Weather History Date:

Friday, November 16, 2012

  Actual Average Record
Temperature  
Mean Temperature 64 °F -  
Max Temperature 70 °F 62 °F 73 °F (1998)
Min Temperature 57 °F 45 °F 33 °F (2001)
Degree Days  
Heating Degree Days 2    
Growing Degree Days 14 (Base 50)    
Moisture  
Dew Point 56 °F    
Average Humidity 74    
Maximum Humidity 88    
Minimum Humidity 57    
Precipitation  
Precipitation 0.24 in 0.14 in - ()
Sea Level Pressure  
Sea Level Pressure 29.90 in    
Wind  
Wind Speed 10 mph ()    
Max Wind Speed 22 mph    
Max Gust Speed 31 mph    
Visibility 7.5 miles    
Events Thunderstorm    
Averages and records for this station are not official NWS values.
T = Trace of Precipitation, MM = Missing Value Source: Averaged Metar Reports

Daily Weather History Graph

Daily Weather History Graph

Search for Another Location

Airport or City:

Trip Planner

Search our weather history database for the weather conditions in past years. The results will help you decide how hot, cold, wet, or windy it might be!

Date:

Astronomy

Nov. 16, 2012 Rise Set
Actual Time 8:03 AM CET 6:14 PM CET
Civil Twilight 7:35 AM CET 6:41 PM CET
Nautical Twilight 7:04 AM CET 7:13 PM CET
Astronomical Twilight 6:33 AM CET 7:43 PM CET
Moon 10:43 AM CET (11/16) 8:58 PM CET (11/16)
Length of Visible Light 11h 05m
Length of Day
10h 10m
Waxing Crescent, 9% of the Moon is Illuminated
Nov 16
Waxing Crescent
Nov 20
First Quarter
Nov 28
Full
Dec 6
Last Quarter
Dec 13
New

Hourly Weather History & Observations

Time (CET) Temp. Dew Point Humidity Pressure Visibility Wind Dir Wind Speed Gust Speed Precip Events Conditions
1:00 AM 61 °F 56 °F 78% 29.99 in 16 mi SE 18.4 mph - -  
5:00 AM 60.8 °F 51.8 °F 72% 29.95 in - Variable 1.2 mph - N/A   Clear
5:30 AM 59.0 °F 51.8 °F 77% 29.95 in - SE 3.5 mph - N/A   Clear
6:00 AM 59.0 °F 51.8 °F 77% 29.95 in - Variable 2.3 mph - N/A   Clear
6:30 AM 59.0 °F 53.6 °F 82% 29.95 in - Variable 2.3 mph - N/A   Clear
7:00 AM 59 °F 56 °F 85% 29.95 in 16 mi East 2.3 mph - -  
7:00 AM 59.0 °F 55.4 °F 88% 29.95 in - East 4.6 mph - N/A   Clear
7:30 AM 59.0 °F 53.6 °F 82% 29.95 in - Variable 1.2 mph - N/A   Clear
8:00 AM 59.0 °F 53.6 °F 82% 29.95 in - East 5.8 mph - N/A   Clear
8:30 AM 60.8 °F 55.4 °F 82% 29.95 in - East 5.8 mph - N/A   Clear
9:00 AM 60.8 °F 55.4 °F 82% 29.95 in - East 3.5 mph - N/A   Clear
9:30 AM 64.4 °F 57.2 °F 77% 29.95 in - SE 8.1 mph - N/A   Clear
10:00 AM 66.2 °F 57.2 °F 73% 29.95 in - SE 10.4 mph - N/A   Clear
10:30 AM 68.0 °F 55.4 °F 64% 29.95 in - SE 13.8 mph - N/A   Clear
11:00 AM 68.0 °F 55.4 °F 64% 29.95 in - SSE 16.1 mph 27.6 mph N/A   Clear
11:30 AM 68.0 °F 55.4 °F 64% 29.95 in 6.2 mi SSE 18.4 mph - N/A   Partly Cloudy
12:00 PM 69.8 °F 57.2 °F 64% 29.95 in 6.2 mi SSE 20.7 mph - N/A   Partly Cloudy
12:30 PM 69.8 °F 55.4 °F 60% 29.92 in 6.2 mi SSE 18.4 mph - N/A   Partly Cloudy
1:00 PM 71 °F 59 °F 57% 29.92 in 16 mi SSE 18.4 mph - -   Scattered Clouds
1:00 PM 69.8 °F 55.4 °F 60% 29.92 in 6.2 mi SSE 17.3 mph - N/A   Partly Cloudy
1:30 PM 71.6 °F 57.2 °F 60% 29.89 in 6.2 mi SSE 18.4 mph - N/A   Partly Cloudy
2:00 PM 69.8 °F 57.2 °F 64% 29.89 in 6.2 mi SSE 21.9 mph - N/A   Partly Cloudy
2:30 PM 69.8 °F 57.2 °F 64% 29.86 in 6.2 mi SE 19.6 mph 31.1 mph N/A   Partly Cloudy
3:00 PM 69.8 °F 57.2 °F 64% 29.86 in 6.2 mi SSE 19.6 mph - N/A   Partly Cloudy
3:30 PM 69.8 °F 57.2 °F 64% 29.86 in 6.2 mi SSE 19.6 mph - N/A   Partly Cloudy
4:00 PM 69.8 °F 55.4 °F 60% 29.86 in 6.2 mi SSE 18.4 mph - N/A   Partly Cloudy
4:30 PM 69.8 °F 55.4 °F 60% 29.86 in 6.2 mi SSE 18.4 mph - N/A   Partly Cloudy
5:00 PM 68.0 °F 57.2 °F 68% 29.86 in 6.2 mi SE 13.8 mph - N/A   Partly Cloudy
5:30 PM 66.2 °F 57.2 °F 73% 29.86 in 6.2 mi SSE 13.8 mph - N/A   Partly Cloudy
6:00 PM 64.4 °F 57.2 °F 77% 29.86 in 6.2 mi South 8.1 mph - N/A   Partly Cloudy
6:30 PM 64.4 °F 57.2 °F 77% 29.86 in 6.2 mi SSE 10.4 mph - N/A   Partly Cloudy
7:00 PM 63 °F 58 °F 79% 29.86 in 16 mi SSE 13.8 mph - -   Scattered Clouds
7:00 PM 62.6 °F 57.2 °F 82% 29.86 in 6.2 mi SSE 13.8 mph - N/A   Scattered Clouds
7:30 PM 62.6 °F 57.2 °F 82% 29.86 in 6.2 mi SSE 15.0 mph - N/A   Scattered Clouds
8:00 PM 62.6 °F 57.2 °F 82% 29.86 in 6.2 mi SSE 15.0 mph - N/A   Scattered Clouds
8:30 PM 62.6 °F 57.2 °F 82% 29.83 in 6.2 mi SE 18.4 mph 31.1 mph N/A   Scattered Clouds
9:00 PM 62.6 °F 57.2 °F 82% 29.83 in 6.2 mi SE 17.3 mph 28.8 mph N/A   Scattered Clouds
9:30 PM 62.6 °F 57.2 °F 82% 29.83 in 6.2 mi SSE 16.1 mph 27.6 mph N/A   Scattered Clouds
10:00 PM 62.6 °F 57.2 °F 82% 29.83 in 6.2 mi SE 16.1 mph - N/A   Mostly Cloudy
10:07 PM 62.6 °F 57.2 °F 82% 29.83 in 6.2 mi SE 13.8 mph - N/A Thunderstorm Mostly Cloudy
10:30 PM 62.6 °F 57.2 °F 82% 29.83 in 6.2 mi SE 16.1 mph - N/A   Mostly Cloudy
10:44 PM 62.6 °F 57.2 °F 82% 29.83 in 6.2 mi SE 15.0 mph - N/A Thunderstorm Mostly Cloudy
11:00 PM 62.6 °F 57.2 °F 82% 29.83 in 6.2 mi SE 13.8 mph - N/A Thunderstorm Mostly Cloudy